Location: Maignaut
(43.8886°N, 0.4051°E)
Time: 23:32:30
(UTC+00:00)

STARLINK-1039 - Pass Details

Date: 27 February 2020
Orbit: 549 x 550 km, 53.0° (Epoch: 05 April)

Event Time Altitude Azimuth Distance (km) Brightness Sun altitude
Rises 18:28:09 0° 231° (SW) 2,706 8.1 -8.8°
Reaches altitude 10° 18:30:22 10° 231° (SW) 1,816 7.1 -9.2°
Maximum altitude 18:34:30 83° 145° (SE) 558 3.6 -10.0°
Enters shadow 18:38:30 11° 57° (ENE) 1,764 5.7 -10.7°
